Weather History for Sheridan, WY

Change the Weather History Date:

Friday, March 29, 2013

  Actual Average Record
Temperature  
Mean Temperature 46 °F 39 °F  
Max Temperature 61 °F 52 °F 77 °F (1978)
Min Temperature 30 °F 26 °F -10 °F (1987)
Degree Days  
Heating Degree Days 19 26  
Month to date heating degree days 912 873  
Since 1 July heating degree days 6235 6408  
Cooling Degree Days 0 0  
Month to date cooling degree days 0 0  
Year to date cooling degree days 0 0  
Moisture  
Dew Point 31 °F    
Average Humidity 62    
Maximum Humidity 92    
Minimum Humidity 32    
Precipitation  
Precipitation 0.02 in 0.04 in 0.67 in (1977)
Month to date precipitation 0.27 0.90  
Year to date precipitation 2.02 2.00  
Sea Level Pressure  
Sea Level Pressure 30.06 in    
Wind  
Wind Speed 7 mph (WNW)    
Max Wind Speed 22 mph    
Max Gust Speed 30 mph    
Visibility 10 miles    
Events Rain    
T = Trace of Precipitation, MM = Missing Value Source: NWS Daily Summary

Daily Weather History Graph

Daily Weather History Graph

Search for Another Location

Airport:

Trip Planner

Search our weather history database for the weather conditions in past years. The results will help you decide how hot, cold, wet, or windy it might be!

Date:

Astronomy

Mar. 29, 2013 Rise Set
Actual Time 6:53 AM MDT 7:32 PM MDT
Civil Twilight 6:24 AM MDT 8:01 PM MDT
Nautical Twilight 5:49 AM MDT 8:36 PM MDT
Astronomical Twilight 5:13 AM MDT 9:12 PM MDT
Moon 10:44 PM MDT (3/29) 7:57 AM MDT (3/29)
Length of Visible Light 13h 37m
Length of Day
12h 38m
Waning Gibbous, 93% of the Moon is Illuminated
Mar 29
Waning Gibbous
Apr 2
Last Quarter
Apr 10
New
Apr 18
First Quarter
Apr 25
Full

Hourly Weather History & Observations

Time (MDT) Temp. Windchill Dew Point Humidity Pressure Visibility Wind Dir Wind Speed Gust Speed Precip Events Conditions
12:53 AM 37.0 °F - 27.0 °F 67% 30.03 in 10.0 mi Calm Calm - N/A   Clear
1:53 AM 36.0 °F 33.3 °F 26.1 °F 67% 30.03 in 10.0 mi NNE 3.5 mph - N/A   Clear
2:53 AM 34.0 °F - 25.0 °F 70% 30.02 in 10.0 mi Calm Calm - N/A   Clear
3:53 AM 30.9 °F - 25.0 °F 79% 30.01 in 10.0 mi Calm Calm - N/A   Clear
4:53 AM 34.0 °F - 25.0 °F 70% 30.01 in 10.0 mi Calm Calm - N/A   Overcast
5:53 AM 32.0 °F - 26.1 °F 79% 30.02 in 10.0 mi Calm Calm - N/A   Mostly Cloudy
6:53 AM 39.0 °F 36.8 °F 25.0 °F 57% 30.02 in 10.0 mi SSW 3.5 mph - N/A   Clear
7:53 AM 37.0 °F - 27.0 °F 67% 30.09 in 10.0 mi Calm Calm - N/A   Clear
8:53 AM 44.1 °F - 28.9 °F 55% 30.09 in 10.0 mi Calm Calm - N/A   Clear
9:53 AM 53.1 °F - 26.1 °F 35% 30.07 in 10.0 mi WNW 8.1 mph - N/A   Clear
10:53 AM 57.0 °F - 28.9 °F 34% 30.07 in 10.0 mi NW 16.1 mph - N/A   Clear
11:53 AM 57.9 °F - 30.9 °F 36% 30.06 in 10.0 mi WNW 13.8 mph - N/A   Clear
12:53 PM 57.9 °F - 30.0 °F 35% 30.05 in 10.0 mi NW 9.2 mph - N/A   Clear
1:53 PM 61.0 °F - 30.9 °F 32% 30.04 in 10.0 mi NW 13.8 mph 19.6 mph N/A   Overcast
2:53 PM 55.0 °F - 37.0 °F 51% 30.07 in 10.0 mi WNW 13.8 mph 18.4 mph 0.00 in   Overcast
3:53 PM 57.0 °F - 32.0 °F 39% 30.06 in 10.0 mi NNW 13.8 mph - N/A   Scattered Clouds
4:53 PM 55.9 °F - 33.1 °F 42% 30.06 in 10.0 mi WNW 8.1 mph - 0.00 in Rain Light Rain
5:53 PM 57.9 °F - 32.0 °F 37% 30.06 in 10.0 mi NNW 5.8 mph - 0.00 in   Partly Cloudy
6:53 PM 51.1 °F - 35.1 °F 54% 30.06 in 10.0 mi West 5.8 mph - N/A   Mostly Cloudy
7:53 PM 46.0 °F 39.6 °F 39.9 °F 79% 30.13 in 10.0 mi WNW 15.0 mph - 0.02 in Rain Light Rain
8:53 PM 46.0 °F 38.8 °F 39.0 °F 76% 30.15 in 10.0 mi NW 18.4 mph - 0.00 in   Overcast
9:53 PM 43.0 °F 37.7 °F 37.9 °F 82% 30.14 in 10.0 mi West 9.2 mph - 0.00 in Rain Light Rain
10:53 PM 43.0 °F 37.7 °F 37.9 °F 82% 30.09 in 10.0 mi SSW 9.2 mph - 0.00 in   Overcast
11:53 PM 37.9 °F - 35.1 °F 89% 30.11 in 10.0 mi Calm Calm - N/A   Clear